Location: Cartignies
(50.0929°N, 3.8447°E)
Time: 13:44:45
(UTC+00:00)

Cosmos 1980 Rocket - Pass Details

Date: 12 January 2026
Orbit: 829 x 848 km, 71.0° (Epoch: 15 February)

Event Time Altitude Azimuth Distance (km) Brightness Sun altitude
Rises 18:24:33 0° 333° (NNW) 3,383 5.6 -21.3°
Reaches altitude 10° 18:27:46 10° 351° (N) 2,447 4.6 -21.8°
Enters shadow 18:30:15 17° 17° (NNE) 1,982 3.9 -22.2°
